| time (UTC) | temp C | wind direction | speed KPH | gust KPH | rain 1hr cm | rain 24hr cm | rain mn cm | humidity % | barometer mb |
| 20260906144537 | 23 | 325 | 1.6 | 9.7 | 0.00 | 0.00 | 0.00 | 82 | 1019.3 |
| 20260906143036 | 23 | 27 | 0.0 | 6.4 | 0.00 | 0.00 | 0.00 | 84 | 1019.2 |
| 20260906134538 | 21 | 54 | 0.0 | 3.2 | 0.00 | 0.00 | 0.00 | 86 | 1019.5 |
| 20260906133038 | 21 | 103 | 0.0 | 4.8 | 0.00 | 0.00 | 0.00 | 88 | 1019.4 |
| 20260906123106 | 18 | 0 | 0.0 | 6.4 | 0.00 | 0.00 | 0.00 | 97 | 1019.0 |
| 20260906114536 | 18 | 0 | 0.0 | 4.8 | 0.00 | 0.00 | 0.00 | 97 | 1018.9 |
| 20260906113037 | 18 | 0 | 0.0 | 1.6 | 0.00 | 0.00 | 0.00 | 96 | 1018.8 |
| 20260906071536 | 20 | 0 | 0.0 | 4.8 | 0.00 | 0.00 | 0.00 | 95 | 1017.7 |
| 20260906063036 | 20 | 0 | 0.0 | 4.8 | 0.00 | 0.00 | 0.00 | 93 | 1018.1 |
| 20260905233038 | 25 | 0 | 0.0 | 0.0 | 0.00 | 0.00 | 0.00 | 84 | 1015.5 |
| 20260905224547 | 26 | 0 | 0.0 | 4.8 | 0.00 | 0.00 | 0.00 | 79 | 1015.3 |
| 20260905221534 | 26 | 24 | 4.8 | 16.1 | 0.00 | 0.00 | 0.00 | 78 | 1015.7 |
| 20260905204537 | 26 | 75 | 3.2 | 16.1 | 0.00 | 0.00 | 0.00 | 82 | 1015.1 |
| 20260905193035 | 26 | 39 | 1.6 | 8.0 | 0.00 | 0.00 | 0.00 | 85 | 1015.5 |
| 20260905183043 | 25 | 103 | 0.0 | 6.4 | 0.00 | 0.00 | 0.00 | 88 | 1015.7 |
| 20260905180036 | 25 | 0 | 0.0 | 4.8 | 0.00 | 0.00 | 0.00 | 88 | 1015.8 |
| 20260905171535 | 25 | 0 | 0.0 | 3.2 | 0.00 | 0.00 | 0.00 | 88 | 1016.1 |
| 20260905170036 | 25 | 98 | 0.0 | 6.4 | 0.00 | 0.00 | 0.00 | 88 | 1016.0 |
| 20260905163038 | 24 | 90 | 1.6 | 9.7 | 0.00 | 0.00 | 0.00 | 91 | 1016.3 |
| 20260905161536 | 25 | 72 | 1.6 | 9.7 | 0.00 | 0.00 | 0.00 | 90 | 1016.0 |